Torna al catalogo

DMSP 5D-3 F17 DEB

AttivoSSO
NORAD 29637·DEBRIS·🇺🇸 United States

Lanciato Nov 4, 2006 da Vandenberg Space Force Base

Loading…

Prossimi Passaggi (prossime 24 ore)

TLE

AggiornatoSource: Space-Track

Epoca: Sep 14, 2026, 09:52 UTC

1 29637U 06050BV  26257.41140059  .00002472  00000-0  72415-3 0  9991
2 29637  98.5093 302.3358 0008081 183.1195 176.9947 14.44780221 28064

Traccia DMSP 5D-3 F17 DEB in tempo reale con AllMySat

Download on the App Store